{"data":{"norad_id":58230,"epoch":"2026-05-25T04:50:17.198880Z","epoch_age_seconds":47798,"freshness":"FRESH","line1":"1 58230U 23171A   26145.20158795  .00045457  00000+0  16160-2 0  9997","line2":"2 58230  42.9915 214.1717 0005544   3.6545 356.4347 15.28276685141428","mean_motion":15.28276685,"eccentricity":0.0005544,"inclination_deg":42.9915,"raan_deg":214.1717,"arg_perigee_deg":3.6545,"mean_anomaly_deg":356.4347,"bstar":0.001616,"rev_number":14142,"period_min":94.223775978104,"perigee_km":477.16107758542,"apogee_km":484.76644851148,"semimajor_km":6859.1007630484,"source":"CELESTRAK","updated_at":"2026-05-25T13:38:18.579057Z"}}